TimeCEST,TemperatureF,Dew PointF,Humidity,Sea Level PressureIn,VisibilityMPH,Wind Direction,Wind SpeedMPH,Gust SpeedMPH,PrecipitationIn,Events,Conditions,WindDirDegrees,DateUTC
12:00 AM,59.0,48.2,67,30.21,-9999.0,Variable,2.3,-,N/A,,Clear,0,2013-08-03 22:00:00
12:30 AM,55.4,50.0,82,30.21,-9999.0,West,3.5,-,N/A,,Clear,280,2013-08-03 22:30:00
1:00 AM,57.2,48.2,72,30.21,-9999.0,Variable,2.3,-,N/A,,Clear,0,2013-08-03 23:00:00
1:30 AM,57.2,48.2,72,30.21,-9999.0,SSE,3.5,-,N/A,,Clear,160,2013-08-03 23:30:00
2:00 AM,56,48,67,,12,Calm,Calm,,,,Clear,,2013-08-04 00:00:00
2:00 AM,55.4,50.0,82,30.21,-9999.0,Calm,Calm,-,N/A,,Clear,0,2013-08-04 00:00:00
2:30 AM,55.4,50.0,82,30.21,-9999.0,Calm,Calm,-,N/A,,Clear,0,2013-08-04 00:30:00
3:00 AM,51.8,50.0,94,30.21,-9999.0,Calm,Calm,-,N/A,,Clear,0,2013-08-04 01:00:00
3:30 AM,51.8,48.2,88,30.21,-9999.0,Calm,Calm,-,N/A,,Clear,0,2013-08-04 01:30:00
4:00 AM,51.8,50.0,94,30.21,-9999.0,Calm,Calm,-,N/A,,Clear,0,2013-08-04 02:00:00
4:30 AM,50.0,48.2,94,30.21,-9999.0,Variable,1.2,-,N/A,,Clear,0,2013-08-04 02:30:00
5:00 AM,50.0,48.2,94,30.21,-9999.0,Calm,Calm,-,N/A,,Clear,0,2013-08-04 03:00:00
5:30 AM,50.0,48.2,94,30.18,-9999.0,Calm,Calm,-,N/A,,Clear,0,2013-08-04 03:30:00
6:00 AM,50.0,48.2,94,30.18,-9999.0,Calm,Calm,-,N/A,,Clear,0,2013-08-04 04:00:00
6:30 AM,48.2,48.2,100,30.18,-9999.0,Calm,Calm,-,N/A,,Clear,0,2013-08-04 04:30:00
7:00 AM,46.4,46.4,100,30.21,-9999.0,Variable,2.3,-,N/A,,Clear,0,2013-08-04 05:00:00
7:30 AM,48.2,46.4,93,30.21,-9999.0,Calm,Calm,-,N/A,,Clear,0,2013-08-04 05:30:00
8:00 AM,48,46,89,,12,Calm,Calm,,,,Clear,,2013-08-04 06:00:00
8:00 AM,48.2,46.4,93,30.21,-9999.0,Calm,Calm,-,N/A,,Clear,0,2013-08-04 06:00:00
8:30 AM,53.6,48.2,82,30.21,-9999.0,Calm,Calm,-,N/A,,Clear,0,2013-08-04 06:30:00
9:00 AM,55.4,50.0,82,30.21,-9999.0,Calm,Calm,-,N/A,,Clear,0,2013-08-04 07:00:00
9:30 AM,60.8,48.2,63,30.21,-9999.0,Calm,Calm,-,N/A,,Clear,0,2013-08-04 07:30:00
10:00 AM,62.6,53.6,72,30.21,-9999.0,Variable,2.3,-,N/A,,Clear,0,2013-08-04 08:00:00
10:30 AM,66.2,57.2,73,30.21,-9999.0,Variable,2.3,-,N/A,,Clear,0,2013-08-04 08:30:00
11:00 AM,68.0,55.4,64,30.21,-9999.0,Variable,2.3,-,N/A,,Clear,0,2013-08-04 09:00:00
11:30 AM,69.8,55.4,60,30.21,-9999.0,Variable,2.3,-,N/A,,Clear,0,2013-08-04 09:30:00
12:00 PM,73.4,50.0,44,30.21,-9999.0,Variable,2.3,-,N/A,,Clear,0,2013-08-04 10:00:00
12:30 PM,75.2,50.0,41,30.21,-9999.0,East,4.6,-,N/A,,Clear,90,2013-08-04 10:30:00
1:00 PM,78.8,48.2,34,30.21,-9999.0,East,4.6,-,N/A,,Clear,80,2013-08-04 11:00:00
1:30 PM,80.6,44.6,28,30.18,-9999.0,ENE,5.8,-,N/A,,Clear,70,2013-08-04 11:30:00
2:00 PM,82,44,16,,12,NE,5.8,,,,Clear,40,2013-08-04 12:00:00
2:00 PM,80.6,44.6,28,30.18,-9999.0,ENE,4.6,-,N/A,,Clear,60,2013-08-04 12:00:00
2:30 PM,82.4,44.6,26,30.18,-9999.0,ENE,3.5,-,N/A,,Clear,60,2013-08-04 12:30:00
3:00 PM,84.2,44.6,25,30.15,-9999.0,Variable,2.3,-,N/A,,Clear,0,2013-08-04 13:00:00
3:30 PM,84.2,48.2,29,30.15,-9999.0,NNW,4.6,-,N/A,,Clear,330,2013-08-04 13:30:00
4:00 PM,84.2,44.6,25,30.15,-9999.0,NNW,3.5,-,N/A,,Clear,330,2013-08-04 14:00:00
4:30 PM,84.2,48.2,29,30.12,-9999.0,Variable,2.3,-,N/A,,Clear,0,2013-08-04 14:30:00
5:00 PM,86.0,46.4,25,30.12,-9999.0,Variable,2.3,-,N/A,,Clear,0,2013-08-04 15:00:00
5:30 PM,87.8,44.6,22,30.12,-9999.0,Variable,1.2,-,N/A,,Clear,0,2013-08-04 15:30:00
6:00 PM,87.8,44.6,22,30.09,-9999.0,East,4.6,-,N/A,,Clear,90,2013-08-04 16:00:00
6:30 PM,89.6,42.8,20,30.09,-9999.0,ENE,3.5,-,N/A,,Clear,70,2013-08-04 16:30:00
7:00 PM,87.8,50.0,27,30.09,-9999.0,Variable,1.2,-,N/A,,Clear,0,2013-08-04 17:00:00
7:30 PM,87.8,42.8,21,30.06,-9999.0,Variable,1.2,-,N/A,,Clear,0,2013-08-04 17:30:00
8:00 PM,92,42,10,,12,Calm,Calm,,,,,,2013-08-04 18:00:00
8:00 PM,87.8,48.2,25,30.06,-9999.0,Calm,Calm,-,N/A,,Clear,0,2013-08-04 18:00:00
8:30 PM,87.8,53.6,31,30.06,-9999.0,Calm,Calm,-,N/A,,Clear,0,2013-08-04 18:30:00
9:00 PM,84.2,55.4,37,30.06,-9999.0,Calm,Calm,-,N/A,,Clear,0,2013-08-04 19:00:00
9:30 PM,77.0,57.2,50,30.09,-9999.0,Variable,1.2,-,N/A,,Clear,0,2013-08-04 19:30:00
10:00 PM,73.4,50.0,44,30.09,-9999.0,WSW,6.9,-,N/A,,Clear,240,2013-08-04 20:00:00
10:30 PM,68.0,55.4,64,30.09,-9999.0,WNW,5.8,-,N/A,,Clear,300,2013-08-04 20:30:00
11:00 PM,68.0,55.4,64,30.12,-9999.0,WNW,5.8,-,N/A,,Clear,300,2013-08-04 21:00:00
11:30 PM,66.2,53.6,64,30.12,-9999.0,Calm,Calm,-,N/A,,Clear,0,2013-08-04 21:30:00